Location: Newark
(48.1500°N, 2.9667°W)
Time: 14:36:27
(UTC+00:00)

Transit 2A - Pass Details

Date: 26 January 2020
Orbit: 600 x 959 km, 66.7° (Epoch: 22 February)

Event Time Altitude Azimuth Distance (km) Brightness Sun altitude
Rises 22:26:15 0° 280° (W) 2,851 - -52.0°
Reaches altitude 10° 22:30:00 10° 313° (NW) 1,953 - -52.5°
Maximum altitude 22:31:36 12° 335° (NNW) 1,848 - -52.7°
Drops below altitude 10° 22:33:13 10° 357° (N) 1,976 - -52.9°
Sets 22:37:04 0° 30° (NNE) 2,932 - -53.4°
